Regional Weather Roundup
Issued by NWS

Home | Current Version | Previous Version | Text Only | Print | Product List | Glossary Off
Versions: 1 2 3 4 5 6 7 8 9 10 11 12 13 14 15 16 17 18 19 20 21 22 23 24 25 26 27 28 29 30 31 32 33 34 35 36 37 38 39 40 41 42 43 44 45 46 47 48 49 50

000
ASUS43 KMKX 271800
RWRWI

WISCONSIN REGIONAL WEATHER ROUNDUP
NATIONAL WEATHER SERVICE MILWAUKEE/SULLIVAN WI
100 PM CDT FRI MAY 27 2016

NOTE: "FAIR" INDICATES FEW OR NO CLOUDS BELOW 12,000 FEET WITH NO
SIGNIFICANT WEATHER AND/OR OBSTRUCTIONS TO VISIBILITY.

WIZ001-002-006>008-014>016-023>028-271900-
NORTHWEST WISCONSIN

CITY           SKY/WX    TMP DP  RH WIND       PRES   REMARKS
SUPERIOR ARPT  LGT RAIN  47  47 100 NE5       29.92S
ASHLAND        CLOUDY    53  49  86 N9        29.90R
6HR MIN TEMP:  51; 6HR MAX TEMP:  59;

HAYWARD        CLOUDY    67  58  72 CALM      29.87R
6HR MIN TEMP:  55; 6HR MAX TEMP:  67; 6HR PCP: TRACE;

SIREN          LGT RAIN  65  62  89 N6        29.83F
CUMBERLAND     CLOUDY    68  59  73 NE6       29.84R
RICE LAKE      LGT RAIN  67  58  71 N5        29.85S
CHETEK         CLOUDY    66  58  74 CALM      29.84R
LADYSMITH      CLOUDY    69  58  69 E6        29.87S
EAU CLAIRE     NOT AVBL
MENOMONIE      PTSUNNY   70  69  97 NE7       29.81F
NEW RICHMOND   CLOUDY    63  62  97 N6        29.81S
OSCEOLA        LGT RAIN  64  64 100 NW5       29.84F
$$

WIZ003>005-009-010-017-018-271900-
NORTH CENTRAL WISCONSIN

CITY           SKY/WX    TMP DP  RH WIND       PRES   REMARKS
MANITOWISH WTR NOT AVBL
ARBOR VITAE    CLOUDY    72  63  72 SE5       29.90S
WOODRUFF       CLOUDY    72  63  72 SE5       29.90S
RHINELANDER    CLOUDY    69  59  70 E5        29.90S
6HR MIN TEMP:  56; 6HR MAX TEMP:  69; 6HR PCP: TRACE;

EAGLE RIVER      N/A     69  58  65 E6        29.90F
LAND O LAKES   CLOUDY    71  59  65 E5        29.92F
PHILLIPS       CLOUDY    68  58  70 E5        29.88R
TOMAHAWK       CLOUDY    66  59  77 CALM      29.89F
MEDFORD        CLOUDY    68  60  74 E7        29.86S
MERRILL        CLOUDY    70  63  78 E7        29.88S
$$

WIZ029-030-035-036-043>047-271900-
CENTRAL WISCONSIN

CITY           SKY/WX    TMP DP  RH WIND       PRES   REMARKS
WAUSAU         CLOUDY    72  61  68 E8        29.84F
6HR MIN TEMP:  61; 6HR MAX TEMP:  74; 6HR PCP: TRACE;

MOSINEE        CLOUDY    70  63  78 E8        29.87S
MARSHFIELD     CLOUDY    76  60  57 SE17      29.83F
6HR MIN TEMP:  63; 6HR MAX TEMP:  78; 6HR PCP: TRACE;

STEVENS POINT  CLOUDY    71  61  70 SE6       29.86S
WAUPACA        CLOUDY    72  67  83 E9        29.87S
WAUTOMA        CLOUDY    73  65  75 E6        29.86S
6HR MIN TEMP:  62; 6HR MAX TEMP:  73;

WISC RAPIDS    CLOUDY    77  59  53 SE13      29.85F
6HR MIN TEMP:  61; 6HR MAX TEMP:  79; 6HR PCP: TRACE;

CAMP DOUGLAS   NOT AVBL
$$

WIZ011>013-019>022-031-037>040-048>050-271900-
NORTHEAST WISCONSIN

CITY           SKY/WX    TMP DP  RH WIND       PRES   REMARKS
ANTIGO         CLOUDY    69  61  75 SE7       29.90S
SHAWANO        LGT RAIN  75  65  70 SE8       29.89R
OCONTO         CLOUDY    63  63 100 E6        29.90R
STURGEON BAY   NOT AVBL
GREEN BAY      CLOUDY    67  66  97 N6        29.88F FOG
6HR MIN TEMP:  66; 6HR MAX TEMP:  75;

MANITOWOC      NOT AVBL
APPLETON       CLOUDY    66  66 100 NE7       29.87F
CLINTONVILLE   RAIN      68  64  88 S6        29.89R
OSHKOSH        CLOUDY    71  66  84 E6        29.86F
6HR MIN TEMP:  66; 6HR MAX TEMP:  74; 6HR PCP:  0.31;

$$

WIZ032>034-041-042-053>061-271900-
SOUTHWEST WISCONSIN

CITY           SKY/WX    TMP DP  RH WIND       PRES   REMARKS
LA CROSSE      CLOUDY    75  62  64 SE10      29.77F
6HR MIN TEMP:  65; 6HR MAX TEMP:  75; 6HR PCP:  0.03;

SPARTA         CLOUDY    74  61  63 SE12      29.82S
VIROQUA        CLOUDY    72  63  73 SE14      29.82F
BOSCOBEL       CLOUDY    75  64  68 VRB5      29.81F
6HR MIN TEMP:  65; 6HR MAX TEMP:  77;

PRAIRIE DU CHI CLOUDY    72  62  70 SE9       29.80F
PLATTEVILLE    CLOUDY    73  67  82 S10       29.83S
$$

WIZ056-057-062-063-064-067-068-271900-
SOUTH CENTRAL WISCONSIN

CITY           SKY/WX    TMP DP  RH WIND       PRES   REMARKS
REEDSBURG      PTSUNNY   74  65  74 S6        29.83F
BARABOO/DELLS  MOSUNNY   74  63  69 S12       29.84F
LONE ROCK      NOT AVBL
MINERAL POINT  CLOUDY    73  68  83 SE8       29.82F
MADISON        PTSUNNY   76  64  66 S7        29.83F
6HR MIN TEMP:  64; 6HR MAX TEMP:  77; 6HR PCP: TRACE;

MIDDLETON      CLOUDY    78  64  61 S12       29.85S HX  80
WATERTOWN      CLOUDY    78  67  69 S8        29.85F
MONROE         CLOUDY    77  63  61 S14       29.83F
JANESVILLE     CLOUDY    81  64  57 SE12G17   29.84F HX  82
$$

WIZ051-052-058>065-066-070>072-271900-
SOUTHEAST WISCONSIN

CITY           SKY/WX    TMP DP  RH WIND       PRES   REMARKS
MILWAUKEE      PTSUNNY   78  69  73 SE12      29.87F HX  80
6HR MIN TEMP:  69; 6HR MAX TEMP:  78;

WAUKESHA       PTSUNNY   75  66  73 S7        29.88F
MILWAUKEE/TIMM PTSUNNY   77  64  65 S10       29.87F
RACINE         PTSUNNY   76  66  71 S13       29.89F
6HR MIN TEMP:  69; 6HR MAX TEMP:  76;

BURLINGTON     MOSUNNY   80  63  56 SE12      29.86F HX  81
KENOSHA        MOSUNNY   80  67  64 S10G16    29.87F HX  82
6HR MIN TEMP:  71; 6HR MAX TEMP:  80; 6HR PCP: TRACE;

FOND DU LAC    CLOUDY    74  65  73 NE3       29.87F
6HR MIN TEMP:  67; 6HR MAX TEMP:  75; 6HR PCP:  0.02;

SHEBOYGAN      CLOUDY    71  65  81 S10       29.88F
6HR MIN TEMP:  61; 6HR MAX TEMP:  72;

WEST BEND      CLOUDY    73  68  83 SE13G18   29.86F HAZE
JUNEAU         CLOUDY    73  64  73 SW3       29.88F
$$

LSZ147-162-271900-
LAKE SUPERIOR

STATION/POSITION TIME  TEMP    WIND        PRES    WAVE
                       AIR SEA DIR/SP/G            HT/PER
                 (UTC) (F)     (DEG/KT/KT) (MB)    (FT/S)
W MID LAKE BUOY  1650   40 38   20/  6/  8 1013.5F   0
DEVILS ISLAND    1700   43      60/ 12/ 13 1013.2F
SAXON HARBOR     1700   47      40/  1/  3 1011.9
$$

LMZ867-665-643>646-271900-
LAKE MICHIGAN

STATION/POSITION TIME  TEMP    WIND        PRES    WAVE
                       AIR SEA DIR/SP/G            HT/PER
                 (UTC) (F)     (DEG/KT/KT) (MB)    (FT/S)
CHAMBERS ISLAND  1700   59     350/  5/  7 1012.5F
N MID LAKE BUOY  1650   48 46   60/  6/  6 1013.2F   1
NORTHPORT PIER   1700   51     140/  5/  7 1013.2R
SISTER BAY       1705   68     150/ 11/ 16   N/A
ALGOMA LAKESHORE 1717          160/  5/  7   N/A
KEWAUNEE LAKESHO 1700   53     110/  3/  5 1012.2S
SHEBOYGAN LAKESH 1700   53     160/ 14/ 15 1012.8R
PORT WASHINGTON  1740   60     150/  4/  7 1012.5F
S MID LAKE BUOY  1650   54 50  140/ 10/ 12 1013.1S   1/ 3
KENOSHA   LAKESH 1700   60     170/ 12/ 16 1012.2S
$$

TC  - TEMPERATURE IN CELSIUS
VSB - VISIBILITY IN STATUTE MILES
WCI - WIND CHILL INDEX
HX  - HEAT INDEX





USA.gov is the U.S. government's official web portal to all federal, state and local government web resources and services.